﻿#観測日時,平均風速,平均風向,最大風速,最大風速発生風向,最大瞬間風速,最大瞬間風速発生風向
#(年月日),(m/s)   ,(16方位),(m/s)   ,(16方位)        ,(m/s)       ,(16方位)            
2020/5/20 0:01,0.7,13,0.7,12,1.5,15
2020/5/20 0:02,0.7,14,0.7,12,2,15
2020/5/20 0:03,0.8,14,0.8,14,2.2,15
2020/5/20 0:04,0.9,14,0.9,14,2.5,15
2020/5/20 0:05,1,15,1,14,2.1,15
2020/5/20 0:06,1.1,15,1.1,15,2.1,15
2020/5/20 0:07,1.1,15,1.1,15,2,15
2020/5/20 0:08,1.2,15,1.2,15,2.1,16
2020/5/20 0:09,1.3,15,1.3,15,1.8,16
2020/5/20 0:10,1.3,15,1.3,15,1.8,15
2020/5/20 0:11,1.4,15,1.4,15,2.4,15
2020/5/20 0:12,1.4,15,1.4,15,2.1,15
2020/5/20 0:13,1.3,15,1.4,15,2,15
2020/5/20 0:14,1.3,15,1.3,15,2,15
2020/5/20 0:15,1.2,15,1.3,15,1.5,15
2020/5/20 0:16,1.2,15,1.2,15,1.6,14
2020/5/20 0:17,1.2,15,1.2,15,1.3,14
2020/5/20 0:18,1.2,14,1.2,15,1.1,12
2020/5/20 0:19,1.1,14,1.2,15,0.9,13
2020/5/20 0:20,1.1,14,1.1,15,1.1,12
2020/5/20 0:21,1.1,14,1.1,15,1.1,12
2020/5/20 0:22,1,13,1,15,0.9,11
2020/5/20 0:23,0.9,13,1,15,1.3,12
2020/5/20 0:24,0.9,13,0.9,15,1.8,12
2020/5/20 0:25,0.9,12,0.9,15,2,13
2020/5/20 0:26,0.9,12,0.9,15,1.1,13
2020/5/20 0:27,0.8,12,0.9,15,1.4,16
2020/5/20 0:28,0.8,13,0.8,14,1.1,1
2020/5/20 0:29,0.8,13,0.8,14,1.1,16
2020/5/20 0:30,0.8,14,0.8,14,1.1,15
2020/5/20 0:31,0.8,14,0.8,14,0.5,16
2020/5/20 0:32,0.8,14,0.8,13,0.6,16
2020/5/20 0:33,0.7,14,0.8,13,0.5,16
2020/5/20 0:34,0.6,15,0.7,13,0.8,16
2020/5/20 0:35,0.5,15,0.6,12,0.6,15
2020/5/20 0:36,0.5,15,0.5,12,0.8,16
2020/5/20 0:37,0.4,15,0.5,12,0.5,15
2020/5/20 0:38,0.4,15,0.4,13,0.8,15
2020/5/20 0:39,0.4,15,0.4,13,0.8,1
2020/5/20 0:40,0.3,15,0.4,14,0.6,11
2020/5/20 0:41,0.3,14,0.3,14,0.6,11
2020/5/20 0:42,0.4,14,0.4,14,0.6,12
2020/5/20 0:43,0.4,14,0.4,14,0.6,12
2020/5/20 0:44,0.4,13,0.4,15,0.6,10
2020/5/20 0:45,0.4,13,0.4,15,0.4,9
2020/5/20 0:46,0.4,12,0.4,15,0.9,9
2020/5/20 0:47,0.4,12,0.4,15,0.8,9
2020/5/20 0:48,0.4,11,0.4,15,0.6,9
2020/5/20 0:49,0.3,11,0.4,15,0.5,10
2020/5/20 0:50,0.3,11,0.3,14,0.3,11
2020/5/20 0:51,0.3,11,0.3,14,0.5,12
2020/5/20 0:52,0.3,11,0.3,14,0.6,14
2020/5/20 0:53,0.3,11,0.3,14,0.8,14
2020/5/20 0:54,0.3,11,0.3,13,1,16
2020/5/20 0:55,0.4,12,0.4,13,1,14
2020/5/20 0:56,0.4,13,0.4,12,1.5,15
2020/5/20 0:57,0.4,13,0.4,11,1.5,15
2020/5/20 0:58,0.5,14,0.5,13,1.4,15
2020/5/20 0:59,0.6,14,0.6,14,1.6,15
2020/5/20 1:00,0.7,14,0.7,14,1.6,15
2020/5/20 1:01,0.8,15,0.8,15,1.6,15
2020/5/20 1:02,0.9,15,0.9,15,2.5,15
2020/5/20 1:03,1,15,1,15,2,15
2020/5/20 1:04,1.1,15,1.1,15,1.4,14
2020/5/20 1:05,1.1,15,1.1,15,1.3,15
2020/5/20 1:06,1,15,1.1,15,0.8,16
2020/5/20 1:07,1,15,1,15,1,16
2020/5/20 1:08,0.9,15,1,15,0.9,16
2020/5/20 1:09,0.9,15,0.9,15,1.1,16
2020/5/20 1:10,0.8,15,0.8,15,0.4,12
2020/5/20 1:11,0.7,14,0.7,15,0.6,8
2020/5/20 1:12,0.6,14,0.7,15,1,13
2020/5/20 1:13,0.5,14,0.6,15,0.9,11
2020/5/20 1:14,0.5,13,0.5,15,1.1,8
2020/5/20 1:15,0.4,12,0.5,15,1.3,10
2020/5/20 1:16,0.5,12,0.5,15,1.6,12
2020/5/20 1:17,0.5,12,0.5,15,1.5,11
2020/5/20 1:18,0.6,12,0.6,15,1,13
2020/5/20 1:19,0.6,12,0.6,15,0.6,15
2020/5/20 1:20,0.6,12,0.6,15,0.8,11
2020/5/20 1:21,0.6,12,0.6,14,1.3,12
2020/5/20 1:22,0.7,12,0.7,12,0.9,12
2020/5/20 1:23,0.6,12,0.7,12,0.8,12
2020/5/20 1:24,0.6,12,0.6,12,1.1,11
2020/5/20 1:25,0.7,12,0.7,12,1,9
2020/5/20 1:26,0.6,11,0.6,12,0.6,10
2020/5/20 1:27,0.5,11,0.6,12,0.5,8
2020/5/20 1:28,0.5,11,0.5,12,0.8,10
2020/5/20 1:29,0.6,10,0.6,12,1.8,11
2020/5/20 1:30,0.7,10,0.7,12,1.9,11
2020/5/20 1:31,0.7,10,0.7,12,1.6,9
2020/5/20 1:32,0.7,10,0.7,12,1,11
2020/5/20 1:33,0.7,10,0.7,12,1.1,10
2020/5/20 1:34,0.7,10,0.7,12,1.1,10
2020/5/20 1:35,0.7,10,0.7,10,1.1,10
2020/5/20 1:36,0.7,10,0.7,10,0.6,12
2020/5/20 1:37,0.7,10,0.7,10,1.1,8
2020/5/20 1:38,0.7,10,0.7,10,0.6,13
2020/5/20 1:39,0.6,10,0.7,10,0.5,10
2020/5/20 1:40,0.5,10,0.6,10,0.5,9
2020/5/20 1:41,0.5,10,0.5,10,0.9,12
2020/5/20 1:42,0.5,10,0.5,10,1.1,13
2020/5/20 1:43,0.5,10,0.5,10,1.8,11
2020/5/20 1:44,0.6,10,0.6,10,1.6,11
2020/5/20 1:45,0.6,10,0.6,10,1.8,13
2020/5/20 1:46,0.8,11,0.8,11,3,12
2020/5/20 1:47,0.8,11,0.8,11,1.4,11
2020/5/20 1:48,0.9,11,0.9,11,1.1,10
2020/5/20 1:49,0.9,11,0.9,11,0.9,11
2020/5/20 1:50,0.9,12,0.9,11,1.5,9
2020/5/20 1:51,0.9,12,0.9,11,1.1,14
2020/5/20 1:52,0.9,11,0.9,11,1.9,11
2020/5/20 1:53,0.9,11,0.9,11,1.6,10
2020/5/20 1:54,0.9,11,0.9,11,2,10
2020/5/20 1:55,1,11,1,11,2.6,12
2020/5/20 1:56,0.9,11,1,11,1.5,11
2020/5/20 1:57,1,11,1,11,2,10
2020/5/20 1:58,1,11,1,11,1.5,10
2020/5/20 1:59,1,11,1,11,0.9,10
2020/5/20 2:00,1,11,1,11,1.4,10
2020/5/20 2:01,1.1,11,1.1,11,1.5,11
2020/5/20 2:02,1,11,1.1,11,1.5,12
2020/5/20 2:03,1.1,11,1.1,11,2.2,11
2020/5/20 2:04,1.1,11,1.1,11,3,10
2020/5/20 2:05,1.2,11,1.2,11,3,10
2020/5/20 2:06,1.2,11,1.2,11,2.4,9
2020/5/20 2:07,1.2,10,1.2,11,1.8,10
2020/5/20 2:08,1.1,10,1.2,11,1,11
2020/5/20 2:09,1.1,11,1.1,11,0.9,13
2020/5/20 2:10,1.1,11,1.1,11,1,11
2020/5/20 2:11,1.1,11,1.1,11,1.5,9
2020/5/20 2:12,1.1,11,1.1,11,1.4,10
2020/5/20 2:13,1,11,1.1,11,1,13
2020/5/20 2:14,0.9,11,1,11,0.9,13
2020/5/20 2:15,0.7,11,0.9,11,0.5,11
2020/5/20 2:16,0.7,12,0.7,11,1.3,10
2020/5/20 2:17,0.7,12,0.7,10,1.3,11
2020/5/20 2:18,0.7,11,0.7,10,0.8,10
2020/5/20 2:19,0.7,11,0.7,11,0.4,13
2020/5/20 2:20,0.6,11,0.7,11,0.4,9
2020/5/20 2:21,0.6,12,0.6,11,0.9,11
2020/5/20 2:22,0.5,12,0.6,11,1,11
2020/5/20 2:23,0.5,12,0.5,11,1.6,12
2020/5/20 2:24,0.5,11,0.5,11,1.3,12
2020/5/20 2:25,0.5,11,0.5,11,0.5,8
2020/5/20 2:26,0.5,11,0.5,12,0.8,11
2020/5/20 2:27,0.4,11,0.5,11,1.1,12
2020/5/20 2:28,0.4,11,0.4,11,0.9,11
2020/5/20 2:29,0.5,11,0.5,11,0.8,12
2020/5/20 2:30,0.5,11,0.5,11,0.5,13
2020/5/20 2:31,0.4,11,0.5,12,0.1,11
2020/5/20 2:32,0.4,11,0.4,12,1,11
2020/5/20 2:33,0.3,11,0.4,12,0.5,12
2020/5/20 2:34,0.3,11,0.3,11,0.8,16
2020/5/20 2:35,0.3,12,0.3,11,0.5,1
2020/5/20 2:36,0.3,12,0.3,11,0.5,9
2020/5/20 2:37,0.3,12,0.3,11,0.5,10
2020/5/20 2:38,0.3,12,0.3,11,0.9,10
2020/5/20 2:39,0.3,12,0.3,11,0.9,10
2020/5/20 2:40,0.3,12,0.3,11,0.8,12
2020/5/20 2:41,0.4,12,0.4,11,1,12
2020/5/20 2:42,0.4,12,0.4,11,0.9,11
2020/5/20 2:43,0.4,12,0.4,12,0.8,11
2020/5/20 2:44,0.4,12,0.4,12,0.3,2
2020/5/20 2:45,0.4,12,0.4,12,0.6,14
2020/5/20 2:46,0.4,12,0.4,12,0.8,1
2020/5/20 2:47,0.4,13,0.4,12,0.4,16
2020/5/20 2:48,0.4,14,0.4,12,0.9,16
2020/5/20 2:49,0.3,14,0.4,12,0.6,15
2020/5/20 2:50,0.3,14,0.3,12,0.5,1
2020/5/20 2:51,0.3,15,0.3,12,1,8
2020/5/20 2:52,0.2,15,0.3,12,0.3,10
2020/5/20 2:53,0.2,15,0.2,12,0.5,1
2020/5/20 2:54,0.2,15,0.2,12,0.4,1
2020/5/20 2:55,0.2,16,0.2,12,0.9,16
2020/5/20 2:56,0.3,15,0.3,12,1.3,16
2020/5/20 2:57,0.4,16,0.4,13,1.5,16
2020/5/20 2:58,0.5,16,0.5,16,1.5,1
2020/5/20 2:59,0.6,16,0.6,16,1.4,1
2020/5/20 3:00,0.7,16,0.7,16,1.4,1
2020/5/20 3:01,0.7,16,0.7,16,1.1,16
2020/5/20 3:02,0.8,16,0.8,16,0.9,16
2020/5/20 3:03,0.8,1,0.8,16,0.9,16
2020/5/20 3:04,0.8,1,0.8,16,0.4,16
2020/5/20 3:05,0.7,1,0.8,16,0.3,16
2020/5/20 3:06,0.7,1,0.7,16,0.6,16
2020/5/20 3:07,0.6,1,0.7,16,0.5,15
2020/5/20 3:08,0.6,16,0.6,16,1.3,11
2020/5/20 3:09,0.6,16,0.6,16,1.1,12
2020/5/20 3:10,0.5,15,0.6,16,0.9,11
2020/5/20 3:11,0.4,15,0.5,16,0.9,15
2020/5/20 3:12,0.5,15,0.5,16,1.4,15
2020/5/20 3:13,0.5,15,0.5,1,1.5,15
2020/5/20 3:14,0.6,14,0.6,1,1.3,15
2020/5/20 3:15,0.7,14,0.7,1,1.4,15
2020/5/20 3:16,0.7,14,0.7,1,1,14
2020/5/20 3:17,0.8,14,0.8,14,1.4,1
2020/5/20 3:18,0.7,14,0.8,14,0.9,12
2020/5/20 3:19,0.7,14,0.7,14,0.9,13
2020/5/20 3:20,0.7,14,0.7,14,0.8,14
2020/5/20 3:21,0.7,14,0.7,14,0.9,14
2020/5/20 3:22,0.6,14,0.7,14,0.5,14
2020/5/20 3:23,0.5,14,0.6,14,0.4,13
2020/5/20 3:24,0.5,14,0.5,14,0.8,15
2020/5/20 3:25,0.5,14,0.5,14,1.6,15
2020/5/20 3:26,0.5,14,0.5,14,1.8,15
2020/5/20 3:27,0.6,14,0.6,14,1.8,15
2020/5/20 3:28,0.6,14,0.6,14,1.4,15
2020/5/20 3:29,0.6,14,0.6,14,0.9,15
2020/5/20 3:30,0.6,14,0.6,14,0.5,15
2020/5/20 3:31,0.6,14,0.6,14,0.8,15
2020/5/20 3:32,0.7,15,0.7,14,1,15
2020/5/20 3:33,0.7,15,0.7,14,1.1,15
2020/5/20 3:34,0.8,15,0.8,15,0.8,14
2020/5/20 3:35,0.7,15,0.8,15,0.6,16
2020/5/20 3:36,0.6,15,0.7,15,0.1,16
2020/5/20 3:37,0.5,15,0.5,15,0.4,16
2020/5/20 3:38,0.4,15,0.5,15,0.5,9
2020/5/20 3:39,0.4,14,0.4,15,0.5,10
2020/5/20 3:40,0.4,14,0.4,15,0.8,12
2020/5/20 3:41,0.4,14,0.4,15,1,14
2020/5/20 3:42,0.4,14,0.4,15,0.5,14
2020/5/20 3:43,0.3,14,0.3,15,0.4,15
2020/5/20 3:44,0.3,14,0.3,15,0.9,15
2020/5/20 3:45,0.3,14,0.3,15,1.1,16
2020/5/20 3:46,0.4,14,0.4,15,1.4,15
2020/5/20 3:47,0.5,14,0.5,15,1.3,16
2020/5/20 3:48,0.6,15,0.6,14,1.6,16
2020/5/20 3:49,0.8,15,0.8,15,2.5,15
2020/5/20 3:50,0.9,15,0.9,15,2.7,1
2020/5/20 3:51,1,16,1,16,2.5,1
2020/5/20 3:52,1,16,1,16,2,16
2020/5/20 3:53,1.1,15,1.1,16,1.1,14
2020/5/20 3:54,1.1,15,1.1,16,1.5,12
2020/5/20 3:55,1.1,15,1.1,16,1,12
2020/5/20 3:56,1.1,15,1.1,16,1.3,16
2020/5/20 3:57,1,14,1,16,1.3,8
2020/5/20 3:58,0.9,14,1,16,0.8,14
2020/5/20 3:59,0.8,13,0.9,16,1.1,12
2020/5/20 4:00,0.7,12,0.8,16,1.9,10
2020/5/20 4:01,0.7,12,0.7,16,1.6,11
2020/5/20 4:02,0.7,11,0.7,16,1.5,10
2020/5/20 4:03,0.7,11,0.7,15,1.4,11
2020/5/20 4:04,0.8,11,0.8,15,1.9,10
2020/5/20 4:05,0.8,10,0.8,15,1.8,10
2020/5/20 4:06,0.9,10,0.9,15,1.5,10
2020/5/20 4:07,0.9,10,0.9,14,1,10
2020/5/20 4:08,1,10,1,10,1.4,12
2020/5/20 4:09,1,11,1,10,1.4,12
2020/5/20 4:10,0.9,11,1,10,0.8,11
2020/5/20 4:11,0.9,11,0.9,10,0.8,11
2020/5/20 4:12,0.8,11,0.9,10,1.4,10
2020/5/20 4:13,0.7,11,0.8,10,0.6,11
2020/5/20 4:14,0.7,11,0.7,10,0.8,7
2020/5/20 4:15,0.6,11,0.6,10,0.4,7
2020/5/20 4:16,0.5,11,0.5,10,0.1,7
2020/5/20 4:17,0.4,10,0.4,10,0.6,10
2020/5/20 4:18,0.3,10,0.4,10,0.4,9
2020/5/20 4:19,0.2,9,0.3,11,0.1,7
2020/5/20 4:20,0.2,8,0.2,11,0.1,7
2020/5/20 4:21,0.2,8,0.2,11,0.5,13
2020/5/20 4:22,0.2,8,0.2,11,0.6,12
2020/5/20 4:23,0.2,9,0.2,11,0.6,12
2020/5/20 4:24,0.2,9,0.2,11,0.8,9
2020/5/20 4:25,0.2,9,0.2,11,1,9
2020/5/20 4:26,0.3,9,0.3,11,1.8,12
2020/5/20 4:27,0.5,10,0.5,10,2.9,11
2020/5/20 4:28,0.7,10,0.7,10,2.5,11
2020/5/20 4:29,0.9,10,0.9,10,2.4,9
2020/5/20 4:30,0.9,11,0.9,10,1.3,13
2020/5/20 4:31,1,11,1,11,1.1,10
2020/5/20 4:32,1,11,1,11,0.6,10
2020/5/20 4:33,1,11,1,11,1.1,12
2020/5/20 4:34,0.9,11,1,11,0.1,1
2020/5/20 4:35,0.9,11,0.9,11,0.6,7
2020/5/20 4:36,0.8,11,0.9,11,0.5,8
2020/5/20 4:37,0.6,11,0.8,11,1.1,9
2020/5/20 4:38,0.5,11,0.6,11,1,9
2020/5/20 4:39,0.4,11,0.5,11,0.6,12
2020/5/20 4:40,0.4,10,0.4,11,0.9,8
2020/5/20 4:41,0.3,10,0.4,11,0.9,8
2020/5/20 4:42,0.3,10,0.3,11,0.5,9
2020/5/20 4:43,0.3,10,0.3,11,1.1,9
2020/5/20 4:44,0.4,9,0.4,11,0.9,9
2020/5/20 4:45,0.4,9,0.4,11,1.3,10
2020/5/20 4:46,0.5,9,0.5,11,3.1,8
2020/5/20 4:47,0.6,10,0.6,11,3.9,9
2020/5/20 4:48,0.8,10,0.8,10,2.6,15
2020/5/20 4:49,0.9,10,0.9,10,2.9,14
2020/5/20 4:50,1,10,1,10,1.9,12
2020/5/20 4:51,1,11,1,10,1.5,12
2020/5/20 4:52,1.1,11,1.1,11,1.5,10
2020/5/20 4:53,1.2,11,1.2,11,2.5,11
2020/5/20 4:54,1.3,11,1.3,11,1.9,10
2020/5/20 4:55,1.3,11,1.3,11,1.3,9
2020/5/20 4:56,1.2,11,1.3,11,1.1,9
2020/5/20 4:57,1.2,11,1.2,11,1.6,11
2020/5/20 4:58,1.2,11,1.2,11,1.9,12
2020/5/20 4:59,1.1,11,1.2,11,2.9,10
2020/5/20 5:00,1.2,10,1.2,11,3,10
2020/5/20 5:01,1.2,10,1.2,11,1.6,11
2020/5/20 5:02,1.2,10,1.2,11,1.1,10
2020/5/20 5:03,1,11,1.2,11,1.4,12
2020/5/20 5:04,1,11,1,11,1.1,13
2020/5/20 5:05,0.9,11,1,11,1.1,11
2020/5/20 5:06,1,11,1,11,1.3,11
2020/5/20 5:07,0.9,11,1,11,1.5,11
2020/5/20 5:08,0.9,11,1,11,1.8,9
2020/5/20 5:09,0.9,11,0.9,11,2.2,10
2020/5/20 5:10,1,11,1,10,3.7,11
2020/5/20 5:11,1.1,11,1.1,10,3.9,11
2020/5/20 5:12,1.3,11,1.3,11,3.3,10
2020/5/20 5:13,1.4,11,1.4,11,2.6,13
2020/5/20 5:14,1.4,11,1.4,11,1.3,9
2020/5/20 5:15,1.4,10,1.4,11,1.9,9
2020/5/20 5:16,1.4,10,1.4,11,1.6,11
2020/5/20 5:17,1.4,10,1.4,11,1.8,10
2020/5/20 5:18,1.5,10,1.5,10,2,9
2020/5/20 5:19,1.5,10,1.5,10,2,10
2020/5/20 5:20,1.4,10,1.5,10,1.8,9
2020/5/20 5:21,1.2,10,1.4,10,1.8,9
2020/5/20 5:22,1.1,10,1.2,10,2.1,9
2020/5/20 5:23,1.1,10,1.1,10,2.2,11
2020/5/20 5:24,1.2,10,1.2,10,2.2,10
2020/5/20 5:25,1.2,10,1.2,10,2,10
2020/5/20 5:26,1.3,10,1.3,10,2.1,10
2020/5/20 5:27,1.3,10,1.3,10,2.2,10
2020/5/20 5:28,1.4,10,1.4,10,3.7,11
2020/5/20 5:29,1.4,10,1.4,10,3.2,11
2020/5/20 5:30,1.4,10,1.4,10,2.5,8
2020/5/20 5:31,1.4,10,1.4,10,2.1,11
2020/5/20 5:32,1.5,10,1.5,10,2.9,11
2020/5/20 5:33,1.5,10,1.5,10,1.9,10
2020/5/20 5:34,1.4,10,1.5,10,2.6,9
2020/5/20 5:35,1.4,10,1.4,10,1.5,9
2020/5/20 5:36,1.4,10,1.4,10,1.4,12
2020/5/20 5:37,1.4,10,1.4,10,3.1,12
2020/5/20 5:38,1.4,11,1.4,10,2.9,10
2020/5/20 5:39,1.4,11,1.4,10,2.2,9
2020/5/20 5:40,1.4,10,1.4,10,2.2,11
2020/5/20 5:41,1.5,10,1.5,10,2.2,10
2020/5/20 5:42,1.4,10,1.4,10,2.7,8
2020/5/20 5:43,1.5,10,1.5,10,3.3,11
2020/5/20 5:44,1.6,10,1.6,10,3.5,10
2020/5/20 5:45,1.7,10,1.7,10,3,10
2020/5/20 5:46,1.7,10,1.7,10,2.9,9
2020/5/20 5:47,1.6,10,1.7,10,2.2,9
2020/5/20 5:48,1.6,10,1.6,10,2.6,12
2020/5/20 5:49,1.6,11,1.6,10,2.9,13
2020/5/20 5:50,1.6,11,1.6,10,2.7,10
2020/5/20 5:51,1.6,11,1.6,10,2.6,9
2020/5/20 5:52,1.7,11,1.7,10,2.9,10
2020/5/20 5:53,1.6,11,1.7,10,2.1,11
2020/5/20 5:54,1.5,11,1.6,10,1.1,9
2020/5/20 5:55,1.5,11,1.5,10,1.8,13
2020/5/20 5:56,1.4,11,1.4,10,2.7,10
2020/5/20 5:57,1.5,11,1.5,11,2.4,10
2020/5/20 5:58,1.4,11,1.5,11,1.9,11
2020/5/20 5:59,1.3,11,1.4,11,1.8,11
2020/5/20 6:00,1.2,11,1.3,11,1,14
2020/5/20 6:01,1,11,1.2,11,0.5,1
2020/5/20 6:02,0.9,11,1,11,1.1,12
2020/5/20 6:03,0.9,11,0.9,11,2.7,11
2020/5/20 6:04,0.9,11,0.9,11,1.9,11
2020/5/20 6:05,0.9,11,0.9,11,1.8,11
2020/5/20 6:06,1,11,1,11,2.4,10
2020/5/20 6:07,1,11,1,11,2.9,10
2020/5/20 6:08,0.9,11,1,11,1.9,9
2020/5/20 6:09,0.9,11,1,11,1.4,10
2020/5/20 6:10,1,11,1,11,1.5,9
2020/5/20 6:11,1,11,1,11,1,11
2020/5/20 6:12,1.1,10,1.1,10,2.1,9
2020/5/20 6:13,1,11,1.1,10,1,15
2020/5/20 6:14,1,10,1,10,1.5,11
2020/5/20 6:15,1,10,1,10,1.3,9
2020/5/20 6:16,0.9,11,1,10,2.2,11
2020/5/20 6:17,0.8,11,0.9,10,1.1,10
2020/5/20 6:18,0.8,11,0.8,10,1.5,9
2020/5/20 6:19,0.8,11,0.8,10,1.4,10
2020/5/20 6:20,0.8,11,0.8,10,1.8,10
2020/5/20 6:21,0.8,11,0.8,10,1.4,13
2020/5/20 6:22,0.8,11,0.9,10,3,12
2020/5/20 6:23,1,11,1,11,2.2,10
2020/5/20 6:24,1,11,1,10,2,9
2020/5/20 6:25,1,11,1,10,2.2,9
2020/5/20 6:26,1,11,1,11,2,7
2020/5/20 6:27,1,11,1,11,1.5,11
2020/5/20 6:28,1.1,11,1.1,11,2.5,10
2020/5/20 6:29,1.1,11,1.1,11,2.1,10
2020/5/20 6:30,1.1,11,1.2,11,2.4,10
2020/5/20 6:31,1.3,10,1.3,11,3.2,10
2020/5/20 6:32,1.3,10,1.3,11,1.4,11
2020/5/20 6:33,1.2,10,1.3,11,2,10
2020/5/20 6:34,1.2,10,1.2,11,1.6,10
2020/5/20 6:35,1.2,10,1.2,11,2.5,9
2020/5/20 6:36,1.4,11,1.4,11,3.1,11
2020/5/20 6:37,1.5,11,1.5,10,2.7,9
2020/5/20 6:38,1.6,11,1.6,11,3.8,11
2020/5/20 6:39,1.6,11,1.6,11,3.2,8
2020/5/20 6:40,1.6,11,1.6,11,3,9
2020/5/20 6:41,1.6,11,1.6,11,2.9,10
2020/5/20 6:42,1.6,10,1.6,11,2.5,11
2020/5/20 6:43,1.7,10,1.7,10,2.7,9
2020/5/20 6:44,1.8,10,1.8,10,4.1,10
2020/5/20 6:45,1.9,10,1.9,10,4.2,9
2020/5/20 6:46,1.9,10,1.9,10,3.2,9
2020/5/20 6:47,1.9,10,1.9,10,2.4,10
2020/5/20 6:48,1.7,10,1.9,10,2.1,11
2020/5/20 6:49,1.7,10,1.7,10,2,12
2020/5/20 6:50,1.6,10,1.7,10,2.1,9
2020/5/20 6:51,1.6,10,1.6,10,2.1,12
2020/5/20 6:52,1.6,11,1.6,10,2.7,9
2020/5/20 6:53,1.5,11,1.6,10,1.6,9
2020/5/20 6:54,1.4,11,1.5,10,3.1,10
2020/5/20 6:55,1.5,11,1.5,10,3.3,11
2020/5/20 6:56,1.5,11,1.5,10,2.7,11
2020/5/20 6:57,1.5,11,1.5,10,2.9,12
2020/5/20 6:58,1.5,11,1.5,10,3.1,9
2020/5/20 6:59,1.6,11,1.6,10,3.7,10
2020/5/20 7:00,1.7,11,1.7,11,3.5,12
2020/5/20 7:01,1.7,11,1.7,11,3.1,10
2020/5/20 7:02,1.8,11,1.8,11,3.6,10
2020/5/20 7:03,1.8,11,1.8,11,4.1,7
2020/5/20 7:04,1.9,10,1.9,11,4.1,10
2020/5/20 7:05,1.8,10,1.8,11,4.2,10
2020/5/20 7:06,1.7,10,1.8,11,2.1,11
2020/5/20 7:07,1.7,10,1.7,11,3.5,9
2020/5/20 7:08,1.6,10,1.7,11,1.5,11
2020/5/20 7:09,1.6,10,1.6,11,1.8,10
2020/5/20 7:10,1.4,10,1.5,11,1.5,14
2020/5/20 7:11,1.4,11,1.4,11,2.4,9
2020/5/20 7:12,1.4,11,1.4,11,4.5,10
2020/5/20 7:13,1.4,11,1.4,11,2.6,11
2020/5/20 7:14,1.2,12,1.4,11,1.8,14
2020/5/20 7:15,1.2,12,1.3,10,4.2,12
2020/5/20 7:16,1.5,12,1.5,10,4.9,12
2020/5/20 7:17,1.6,12,1.6,10,3.3,14
2020/5/20 7:18,1.6,12,1.6,10,2.4,12
2020/5/20 7:19,1.6,12,1.7,12,2.5,12
2020/5/20 7:20,1.7,12,1.7,12,2.7,1
2020/5/20 7:21,1.8,12,1.8,12,3,10
2020/5/20 7:22,1.6,12,1.8,12,1.8,12
2020/5/20 7:23,1.7,12,1.7,12,2.6,12
2020/5/20 7:24,1.9,12,1.9,12,4.5,13
2020/5/20 7:25,2.1,12,2.1,12,5.2,14
2020/5/20 7:26,2.1,13,2.1,12,5.6,16
2020/5/20 7:27,2.1,13,2.1,12,3.2,15
2020/5/20 7:28,2.2,13,2.2,13,4.9,15
2020/5/20 7:29,2.3,13,2.3,13,3.8,12
2020/5/20 7:30,2.3,13,2.3,13,3,12
2020/5/20 7:31,2.2,13,2.3,13,2,11
2020/5/20 7:32,2.3,13,2.3,13,3.2,7
2020/5/20 7:33,2.2,13,2.3,13,1.8,11
2020/5/20 7:34,2.1,13,2.2,13,2.5,15
2020/5/20 7:35,1.9,13,2.1,13,3.2,13
2020/5/20 7:36,1.8,13,1.9,13,5.5,10
2020/5/20 7:37,2,13,2,13,5.6,13
2020/5/20 7:38,2,13,2.1,13,5.1,13
2020/5/20 7:39,1.8,13,2,13,2.2,13
2020/5/20 7:40,1.8,13,1.8,13,2.5,11
2020/5/20 7:41,1.9,12,1.9,13,2.7,11
2020/5/20 7:42,1.9,12,2,13,3.5,11
2020/5/20 7:43,2.1,12,2.1,13,3.5,13
2020/5/20 7:44,2,12,2.1,13,2.1,12
2020/5/20 7:45,2.2,12,2.2,12,6.7,13
2020/5/20 7:46,2.2,12,2.2,12,5.8,13
2020/5/20 7:47,2.1,12,2.3,12,4.3,11
2020/5/20 7:48,2,12,2.1,12,2.4,10
2020/5/20 7:49,2.1,12,2.1,12,4.3,13
2020/5/20 7:50,2.1,12,2.2,12,5.2,12
2020/5/20 7:51,2.2,12,2.2,12,4.1,11
2020/5/20 7:52,2.2,12,2.2,12,3.3,12
2020/5/20 7:53,2.2,12,2.3,12,3.3,12
2020/5/20 7:54,2.2,12,2.2,12,2.2,12
2020/5/20 7:55,2,12,2.2,12,3.5,12
2020/5/20 7:56,2.2,12,2.2,12,7,12
2020/5/20 7:57,2.2,12,2.2,12,4.5,13
2020/5/20 7:58,2.2,12,2.2,12,3.8,15
2020/5/20 7:59,2.4,13,2.5,13,5.8,13
2020/5/20 8:00,2.5,13,2.5,13,4.5,14
2020/5/20 8:01,2.6,13,2.6,13,4.1,13
2020/5/20 8:02,2.7,13,2.7,13,4.8,11
2020/5/20 8:03,2.9,13,2.9,13,6,13
2020/5/20 8:04,3.1,13,3.1,13,5.1,14
2020/5/20 8:05,3.2,13,3.2,13,3.6,12
2020/5/20 8:06,3,13,3.2,13,4.1,13
2020/5/20 8:07,2.8,13,3,13,1.9,15
2020/5/20 8:08,2.9,13,2.9,13,5.2,15
2020/5/20 8:09,2.7,13,2.8,13,4.8,12
2020/5/20 8:10,2.8,13,2.8,13,4.9,14
2020/5/20 8:11,2.7,13,2.8,13,4.2,15
2020/5/20 8:12,2.7,13,2.7,13,4.8,15
2020/5/20 8:13,2.5,13,2.7,13,3,12
2020/5/20 8:14,2.3,13,2.5,13,2.9,12
2020/5/20 8:15,2.3,13,2.3,13,5.5,13
2020/5/20 8:16,2.3,13,2.3,13,5.5,12
2020/5/20 8:17,2.4,13,2.4,13,3.1,14
2020/5/20 8:18,2.3,13,2.5,13,2.9,12
2020/5/20 8:19,2.3,13,2.4,13,4.4,10
2020/5/20 8:20,2.2,13,2.3,13,3.8,12
2020/5/20 8:21,2.1,12,2.1,13,5.2,11
2020/5/20 8:22,2,12,2.1,13,3.3,15
2020/5/20 8:23,1.9,12,2,14,2.2,12
2020/5/20 8:24,1.9,12,1.9,13,4.7,8
2020/5/20 8:25,2,12,2,13,5.4,13
2020/5/20 8:26,2,12,2,13,4.3,13
2020/5/20 8:27,2.1,12,2.1,13,5.8,12
2020/5/20 8:28,2.3,12,2.3,13,5.1,13
2020/5/20 8:29,2.3,12,2.3,13,4.1,10
2020/5/20 8:30,2.4,12,2.4,12,5.7,12
2020/5/20 8:31,2.4,12,2.4,12,3,10
2020/5/20 8:32,2.3,12,2.4,12,2.1,7
2020/5/20 8:33,2.4,12,2.4,12,4.8,13
2020/5/20 8:34,2.5,12,2.5,12,3.1,13
2020/5/20 8:35,2.3,12,2.5,12,3.3,12
2020/5/20 8:36,2.3,12,2.3,12,5.5,12
2020/5/20 8:37,2.3,12,2.3,12,7.1,13
2020/5/20 8:38,2.5,12,2.5,12,6.3,13
2020/5/20 8:39,2.6,12,2.6,12,5.8,12
2020/5/20 8:40,2.6,12,2.6,12,4.5,13
2020/5/20 8:41,2.6,12,2.6,12,2.6,13
2020/5/20 8:42,2.7,12,2.7,12,2.9,16
2020/5/20 8:43,2.7,13,2.7,12,4.8,13
2020/5/20 8:44,2.8,13,2.8,13,4.4,14
2020/5/20 8:45,2.8,13,2.8,13,3.9,13
2020/5/20 8:46,2.7,13,2.8,13,3.3,12
2020/5/20 8:47,2.5,13,2.7,13,4.2,2
2020/5/20 8:48,2.4,13,2.6,13,4.2,13
2020/5/20 8:49,2.4,13,2.4,13,5.5,13
2020/5/20 8:50,2.2,13,2.4,13,3.7,14
2020/5/20 8:51,2.3,13,2.3,13,3.1,11
2020/5/20 8:52,2.5,13,2.5,13,4.9,11
2020/5/20 8:53,2.5,13,2.5,13,4.1,12
2020/5/20 8:54,2.4,13,2.5,13,4.5,13
2020/5/20 8:55,2.4,13,2.4,13,3.5,15
2020/5/20 8:56,2.3,13,2.4,13,3.5,8
2020/5/20 8:57,2.4,13,2.4,13,4.5,12
2020/5/20 8:58,2.5,13,2.5,13,5.4,13
2020/5/20 8:59,2.4,13,2.5,13,5.1,13
2020/5/20 9:00,2.5,13,2.5,13,4.2,14
2020/5/20 9:01,2.6,12,2.6,12,5.2,11
2020/5/20 9:02,2.5,13,2.6,12,4.4,12
2020/5/20 9:03,2.5,13,2.5,12,3,13
2020/5/20 9:04,2.5,13,2.5,12,3.2,10
2020/5/20 9:05,2.4,13,2.5,12,2.9,8
2020/5/20 9:06,2.4,13,2.4,12,2.5,14
2020/5/20 9:07,2.3,13,2.4,12,4.4,1
2020/5/20 9:08,2.2,13,2.3,12,3.9,16
2020/5/20 9:09,2,13,2.2,12,2.1,14
2020/5/20 9:10,1.8,13,2,12,4.1,14
2020/5/20 9:11,1.8,13,1.9,12,5,10
2020/5/20 9:12,1.9,13,1.9,13,8.1,12
2020/5/20 9:13,2,13,2,13,8.1,12
2020/5/20 9:14,2.2,13,2.2,13,7.4,13
2020/5/20 9:15,2.5,13,2.5,13,7.9,13
2020/5/20 9:16,2.8,13,2.8,13,7.8,13
2020/5/20 9:17,3,13,3,13,6.7,14
2020/5/20 9:18,3.1,13,3.1,13,4.5,15
2020/5/20 9:19,3.2,13,3.2,13,4.2,16
2020/5/20 9:20,3.4,13,3.4,13,5.5,14
2020/5/20 9:21,3.3,13,3.4,13,4.8,13
2020/5/20 9:22,3.3,13,3.4,13,6,11
2020/5/20 9:23,3.2,13,3.3,13,5.7,14
2020/5/20 9:24,3.2,13,3.2,13,5.5,14
2020/5/20 9:25,3.2,13,3.2,13,6.9,12
2020/5/20 9:26,3,13,3.2,13,5.4,14
2020/5/20 9:27,2.7,13,3,13,2,16
2020/5/20 9:28,2.7,13,2.7,13,4.7,13
2020/5/20 9:29,2.8,13,2.8,13,6,12
2020/5/20 9:30,2.8,13,2.8,13,5.7,14
2020/5/20 9:31,2.9,13,2.9,13,6.4,11
2020/5/20 9:32,3,13,3,13,6.9,15
2020/5/20 9:33,3,13,3,13,6.7,13
2020/5/20 9:34,2.9,13,3,13,3.7,13
2020/5/20 9:35,2.7,13,2.9,13,4.5,11
2020/5/20 9:36,2.8,13,2.8,13,4.9,11
2020/5/20 9:37,3.1,13,3.1,13,6.8,13
2020/5/20 9:38,3.2,13,3.2,13,6.7,15
2020/5/20 9:39,3.5,13,3.5,13,9.3,13
2020/5/20 9:40,3.7,13,3.7,13,9,12
2020/5/20 9:41,3.9,13,3.9,13,7.2,13
2020/5/20 9:42,3.8,13,3.9,13,5.6,15
2020/5/20 9:43,3.7,12,3.7,13,3.7,12
2020/5/20 9:44,3.8,12,3.8,13,6,12
2020/5/20 9:45,3.9,12,3.9,13,5.4,13
2020/5/20 9:46,4,12,4,12,7.5,13
2020/5/20 9:47,3.9,13,4,12,7.1,12
2020/5/20 9:48,3.8,12,4,12,6.5,12
2020/5/20 9:49,3.6,12,3.8,12,6.7,11
2020/5/20 9:50,3.4,12,3.6,12,5.6,11
2020/5/20 9:51,3.3,12,3.4,12,8.3,14
2020/5/20 9:52,3.2,13,3.4,12,6.4,11
2020/5/20 9:53,3.2,13,3.2,12,5,15
2020/5/20 9:54,3.2,13,3.3,12,6.4,13
2020/5/20 9:55,3.3,13,3.3,12,5.2,12
2020/5/20 9:56,3.3,13,3.4,12,6.2,12
2020/5/20 9:57,3.3,13,3.4,12,6.4,14
2020/5/20 9:58,3.3,13,3.3,12,4.9,11
2020/5/20 9:59,3.2,13,3.3,12,4.2,12
2020/5/20 10:00,3.1,13,3.2,12,4.4,12
2020/5/20 10:01,2.9,13,3.1,12,5.2,14
2020/5/20 10:02,2.8,13,2.9,13,3.1,14
2020/5/20 10:03,2.8,13,2.9,13,3.5,12
2020/5/20 10:04,2.7,13,2.8,13,6.2,11
2020/5/20 10:05,2.8,13,2.8,13,8.5,12
2020/5/20 10:06,2.7,13,2.8,13,7.1,13
2020/5/20 10:07,2.5,13,2.6,13,6.2,16
2020/5/20 10:08,2.5,13,2.6,13,4.7,16
2020/5/20 10:09,2.7,13,2.7,13,5.4,14
2020/5/20 10:10,2.8,13,2.8,13,5.6,12
2020/5/20 10:11,2.7,13,2.7,13,3.9,14
2020/5/20 10:12,2.8,13,2.8,13,4.4,12
2020/5/20 10:13,2.9,13,2.9,13,6.1,13
2020/5/20 10:14,2.9,13,3,13,5.4,12
2020/5/20 10:15,3,13,3,13,9.9,12
2020/5/20 10:16,3,13,3,13,7.6,12
2020/5/20 10:17,2.9,12,3,13,2.4,10
2020/5/20 10:18,3,12,3,13,9.1,13
2020/5/20 10:19,3,12,3.1,12,7.2,12
2020/5/20 10:20,3.2,12,3.2,12,5.7,11
2020/5/20 10:21,3.5,12,3.5,12,7.2,12
2020/5/20 10:22,3.8,12,3.8,12,6.2,13
2020/5/20 10:23,3.7,12,3.8,12,4.3,14
2020/5/20 10:24,3.9,12,3.9,12,8.7,12
2020/5/20 10:25,3.8,12,4,12,8.1,12
2020/5/20 10:26,3.8,13,3.8,12,6.5,13
2020/5/20 10:27,4,13,4,12,6.8,12
2020/5/20 10:28,4,13,4.1,13,6.2,12
2020/5/20 10:29,3.9,13,3.9,13,6,16
2020/5/20 10:30,3.8,13,3.9,13,5.1,14
2020/5/20 10:31,3.6,13,3.8,13,6.1,13
2020/5/20 10:32,3.5,13,3.6,13,5.7,13
2020/5/20 10:33,3.6,13,3.6,13,5.2,13
2020/5/20 10:34,3.3,13,3.6,13,6.4,14
2020/5/20 10:35,3.2,13,3.3,13,6,12
2020/5/20 10:36,3.2,13,3.2,13,6.8,9
2020/5/20 10:37,3.3,13,3.3,13,7.2,13
2020/5/20 10:38,3.5,13,3.5,13,7.5,12
2020/5/20 10:39,3.4,13,3.5,13,4.9,15
2020/5/20 10:40,3.4,13,3.4,13,6.1,14
2020/5/20 10:41,3.5,13,3.5,13,6.5,13
2020/5/20 10:42,3.6,13,3.6,13,6.1,12
2020/5/20 10:43,3.6,13,3.6,13,5.7,12
2020/5/20 10:44,3.8,13,3.9,13,6.4,12
2020/5/20 10:45,3.7,12,3.9,13,5.2,13
2020/5/20 10:46,3.6,12,3.7,13,5.5,9
2020/5/20 10:47,3.4,12,3.6,13,4.4,9
2020/5/20 10:48,3.4,12,3.4,13,6.4,12
2020/5/20 10:49,3.4,12,3.4,13,7.1,13
2020/5/20 10:50,3.4,12,3.5,13,4.4,12
2020/5/20 10:51,3.1,12,3.3,13,5.4,12
2020/5/20 10:52,3.1,12,3.2,13,5.8,13
2020/5/20 10:53,3.2,12,3.2,13,5.7,13
2020/5/20 10:54,3.1,12,3.1,12,4.9,13
2020/5/20 10:55,3.1,12,3.1,12,4.8,13
2020/5/20 10:56,3.2,12,3.2,12,3.6,12
2020/5/20 10:57,3.4,12,3.4,12,5.6,12